FW4608 Weather Reports


time (UTC)temp
C
wind
direction
speed
KPH
gust
KPH
rain 1hr
cm
rain 24hr
cm
rain mn
cm
humidity
%
barometer
mb
20260902150549 30 176 0.0 3.2 0.00 0.03 0.00 80 1017.5
20260902150048 31 311 0.0 3.2 0.00 0.03 0.00 80 1017.4
20260902145546 31 305 0.0 4.8 0.00 0.03 0.00 81 1017.5
20260902145045 30 131 0.0 3.2 0.00 0.03 0.00 82 1017.5
20260902144558 30 316 0.0 4.8 0.00 0.03 0.00 81 1017.4
20260902144046 30 197 0.0 4.8 0.00 0.03 0.00 82 1017.3
20260902143543 30 122 0.0 4.8 0.00 0.03 0.00 82 1017.4
20260902143040 30 8 0.0 4.8 0.00 0.03 0.00 83 1017.3
20260902142639 30 302 0.0 4.8 0.00 0.03 0.00 84 1017.3
20260902142037 30 323 0.0 0.0 0.00 0.03 0.00 83 1017.2
20260902141539 30 275 0.0 4.8 0.00 0.03 0.00 84 1017.1
20260902141037 30 146 0.0 4.8 0.00 0.03 0.00 84 1017.1
20260902140532 29 250 0.0 3.2 0.00 0.03 0.00 86 1017.1
20260902140030 28 334 0.0 1.6 0.00 0.03 0.00 87 1017.2
20260902135528 28 304 0.0 4.8 0.00 0.03 0.00 86 1017.2
20260902135028 28 324 0.0 4.8 0.00 0.03 0.00 86 1017.2
20260902134532 28 36 0.0 4.8 0.00 0.03 0.00 87 1017.3
20260902134025 28 344 0.0 3.2 0.00 0.03 0.00 88 1017.2
20260902133524 27 1 0.0 3.2 0.00 0.03 0.00 88 1017.2
20260902133024 27 1 0.0 3.2 0.00 0.03 0.00 88 1017.1
20260902132519 27 290 0.0 3.2 0.00 0.03 0.00 89 1017.2
20260902132018 27 309 0.0 3.2 0.00 0.03 0.00 89 1017.2
20260902131516 27 164 0.0 6.4 0.00 0.03 0.00 90 1017.1
20260902131014 27 14 0.0 6.4 0.00 0.03 0.00 91 1017.1
20260902130512 27 104 0.0 4.8 0.00 0.03 0.00 92 1017.0
20260902130010 27 104 0.0 4.8 0.00 0.03 0.00 93 1017.0
20260902125509 26 321 0.0 1.6 0.00 0.03 0.00 94 1017.0
20260902125008 26 334 0.0 1.6 0.00 0.03 0.00 94 1017.0
20260902124507 26 284 0.0 3.2 0.00 0.03 0.00 94 1017.0
20260902124005 26 153 0.0 1.6 0.00 0.03 0.00 95 1017.0
20260902123503 26 160 0.0 0.0 0.00 0.03 0.00 95 1017.1
20260902123001 26 158 0.0 1.6 0.00 0.03 0.00 95 1017.0
20260902122600 26 108 0.0 1.6 0.00 0.03 0.00 95 1017.0
20260902122059 26 302 0.0 1.6 0.00 0.03 0.00 95 1016.9
20260902121557 26 302 0.0 1.6 0.00 0.03 0.00 95 1017.0
20260902121056 26 323 0.0 1.6 0.00 0.03 0.00 95 1017.0
20260902120555 25 318 0.0 1.6 0.00 0.03 0.00 95 1016.9
20260902120054 25 69 0.0 1.6 0.00 0.03 0.00 95 1016.8
20260902115554 25 322 0.0 0.0 0.00 0.03 0.00 95 1016.8
20260902115051 25 322 0.0 1.6 0.00 0.03 0.00 95 1016.8
20260902114552 25 322 0.0 1.6 0.00 0.03 0.00 95 1016.6
20260902114048 25 323 0.0 0.0 0.00 0.03 0.00 95 1016.6
20260902113549 25 323 0.0 0.0 0.00 0.03 0.00 95 1016.6
20260902113052 25 323 0.0 0.0 0.00 0.03 0.00 95 1016.6
20260902112547 25 323 0.0 0.0 0.00 0.03 0.00 95 1016.6
20260902112046 25 322 0.0 0.0 0.00 0.03 0.00 95 1016.6
20260902111548 25 322 0.0 0.0 0.00 0.03 0.00 95 1016.6
20260902111046 25 322 0.0 0.0 0.00 0.03 0.00 95 1016.6
20260902110545 25 322 0.0 0.0 0.00 0.03 0.00 95 1016.5
20260902110044 25 322 0.0 0.0 0.00 0.03 0.00 95 1016.5
20260902105544 25 322 0.0 0.0 0.00 0.03 0.00 95 1016.4
20260902105042 25 322 0.0 0.0 0.00 0.03 0.00 95 1016.5
20260902104543 25 322 0.0 0.0 0.00 0.03 0.00 95 1016.5
20260902104040 25 322 0.0 0.0 0.00 0.03 0.00 95 1016.4
20260902103538 25 322 0.0 0.0 0.00 0.03 0.00 95 1016.4
20260902103039 25 322 0.0 0.0 0.00 0.03 0.00 95 1016.4
20260902102537 25 322 0.0 0.0 0.00 0.03 0.00 95 1016.4
20260902102036 25 322 0.0 0.0 0.00 0.03 0.00 95 1016.3
20260902101537 25 322 0.0 0.0 0.00 0.03 0.00 95 1016.3
20260902101035 25 322 0.0 0.0 0.00 0.03 0.00 95 1016.2
20260902100534 25 322 0.0 0.0 0.00 0.03 0.00 95 1016.2
20260902100134 25 322 0.0 0.0 0.00 0.03 0.00 95 1016.1
20260902095533 25 322 0.0 0.0 0.00 0.03 0.00 94 1016.0
20260902095032 25 322 0.0 0.0 0.00 0.03 0.00 94 1015.9
20260902094533 25 322 0.0 0.0 0.00 0.03 0.00 94 1015.9
20260902094031 25 322 0.0 0.0 0.00 0.03 0.00 94 1015.8
20260902093536 25 322 0.0 0.0 0.00 0.03 0.00 94 1015.7
20260902093035 25 322 0.0 0.0 0.00 0.03 0.00 94 1015.7
20260902092529 25 322 0.0 0.0 0.00 0.03 0.00 94 1015.7
20260902092029 25 322 0.0 0.0 0.00 0.03 0.00 94 1015.7
20260902091527 25 322 0.0 0.0 0.00 0.03 0.00 94 1015.7
20260902091025 25 322 0.0 0.0 0.00 0.03 0.00 94 1015.7
20260902090526 25 322 0.0 0.0 0.00 0.03 0.00 94 1015.7
20260902090024 25 322 0.0 0.0 0.00 0.03 0.00 94 1015.7
20260902085523 25 322 0.0 0.0 0.00 0.03 0.00 94 1015.6
20260902085025 25 322 0.0 0.0 0.00 0.03 0.00 94 1015.6
20260902084522 25 323 0.0 0.0 0.00 0.03 0.00 94 1015.7
20260902084024 25 323 0.0 0.0 0.00 0.03 0.00 94 1015.7
20260902083520 25 323 0.0 0.0 0.00 0.03 0.00 94 1015.8
20260902083018 25 323 0.0 0.0 0.00 0.03 0.00 94 1015.8
20260902082522 25 323 0.0 0.0 0.00 0.03 0.00 94 1015.8
20260902082020 25 323 0.0 0.0 0.00 0.03 0.00 94 1015.9
20260902081517 25 323 0.0 0.0 0.00 0.03 0.00 94 1015.9
20260902081017 25 323 0.0 0.0 0.00 0.03 0.00 94 1016.0
20260902080516 25 323 0.0 0.0 0.00 0.03 0.00 94 1015.8
20260902080016 25 323 0.0 0.0 0.00 0.03 0.00 94 1015.9
20260902075516 25 323 0.0 0.0 0.00 0.03 0.00 94 1015.9
20260902075014 25 323 0.0 0.0 0.00 0.03 0.00 94 1015.9
20260902074514 25 323 0.0 0.0 0.00 0.03 0.00 94 1015.8
20260902074014 25 323 0.0 0.0 0.00 0.03 0.00 94 1015.9
20260902073512 25 323 0.0 0.0 0.00 0.03 0.00 94 1015.8
20260902073011 25 323 0.0 0.0 0.00 0.03 0.00 94 1015.8
20260902072510 25 323 0.0 0.0 0.00 0.03 0.00 94 1015.9
20260902072013 25 323 0.0 0.0 0.00 0.03 0.00 94 1016.0
20260902071509 25 323 0.0 0.0 0.00 0.03 0.00 94 1016.0
20260902071009 25 323 0.0 0.0 0.00 0.03 0.00 94 1015.9
20260902070509 25 323 0.0 0.0 0.00 0.03 0.00 94 1015.9
20260902070009 25 323 0.0 0.0 0.00 0.03 0.00 94 1015.9
20260902065512 25 323 0.0 0.0 0.00 0.03 0.00 94 1015.8
20260902065009 25 323 0.0 0.0 0.00 0.03 0.00 94 1015.8
20260902064506 25 323 0.0 0.0 0.00 0.03 0.00 94 1015.9
20260902064006 25 323 0.0 0.0 0.00 0.03 0.00 94 1015.8
20260902063508 25 323 0.0 0.0 0.00 0.03 0.00 94 1015.7
20260902063004 25 323 0.0 0.0 0.00 0.03 0.00 94 1015.8
20260902062505 25 323 0.0 0.0 0.00 0.03 0.00 94 1015.8
20260902062003 25 323 0.0 0.0 0.00 0.03 0.00 94 1015.8
20260902061502 25 323 0.0 0.0 0.00 0.03 0.00 94 1015.7
20260902061001 25 323 0.0 0.0 0.00 0.03 0.00 94 1015.7
20260902060600 25 323 0.0 0.0 0.00 0.03 0.00 94 1015.7
20260902060112 25 323 0.0 0.0 0.00 0.03 0.00 93 1015.7
20260902055600 25 323 0.0 0.0 0.00 0.03 0.00 93 1015.8
20260902055058 25 323 0.0 0.0 0.00 0.03 0.00 93 1015.8
20260902054558 25 323 0.0 0.0 0.00 0.03 0.00 93 1015.8
20260902054057 25 323 0.0 0.0 0.00 0.03 0.00 93 1015.9
20260902053556 25 323 0.0 0.0 0.00 0.03 0.00 93 1016.0
20260902053059 25 323 0.0 0.0 0.00 0.03 0.00 93 1015.8
20260902052556 25 323 0.0 0.0 0.00 0.03 0.00 93 1015.9
20260902052052 25 323 0.0 0.0 0.00 0.03 0.00 93 1015.9
20260902051553 25 323 0.0 0.0 0.00 0.03 0.00 93 1016.0
20260902051052 25 323 0.0 0.0 0.00 0.03 0.00 93 1016.0
20260902050551 25 323 0.0 0.0 0.00 0.03 0.00 93 1016.0
20260902050050 25 323 0.0 0.0 0.00 0.03 0.00 93 1016.0
20260902045549 25 323 0.0 0.0 0.00 0.03 0.00 93 1015.9
20260902045047 25 323 0.0 0.0 0.00 0.03 0.00 93 1016.1
20260902044547 25 323 0.0 0.0 0.00 0.03 0.00 92 1016.1
20260902044145 25 323 0.0 0.0 0.00 0.03 0.00 92 1016.1
20260902043544 25 323 0.0 0.0 0.00 0.03 0.00 92 1016.1
20260902043042 25 323 0.0 0.0 0.00 0.03 0.00 92 1016.2
20260902042542 25 323 0.0 0.0 0.00 0.03 0.00 92 1016.2
20260902042042 26 323 0.0 0.0 0.00 0.03 0.00 92 1016.2
20260902041540 26 323 0.0 0.0 0.00 0.03 0.00 92 1016.2
20260902041039 26 323 0.0 0.0 0.00 0.03 0.00 92 1016.3
20260902040538 26 323 0.0 0.0 0.00 0.03 0.00 92 1016.3
20260902040037 26 323 0.0 0.0 0.00 0.03 0.00 92 1016.3
20260902035536 26 323 0.0 0.0 0.00 0.03 0.03 92 1016.3
20260902035036 26 323 0.0 0.0 0.00 0.03 0.03 92 1016.3
20260902034544 26 323 0.0 0.0 0.00 0.03 0.03 92 1016.4
20260902034036 26 323 0.0 0.0 0.00 0.03 0.03 92 1016.4
20260902033534 26 323 0.0 0.0 0.00 0.03 0.03 91 1016.5
20260902033051 26 323 0.0 0.0 0.00 0.03 0.03 91 1016.5
20260902032532 26 323 0.0 0.0 0.00 0.03 0.03 91 1016.5
20260902032033 26 323 0.0 0.0 0.00 0.03 0.03 91 1016.5
20260902031531 26 323 0.0 0.0 0.00 0.03 0.03 91 1016.7
20260902031031 26 323 0.0 0.0 0.00 0.03 0.03 91 1016.8
20260902030530 26 323 0.0 0.0 0.00 0.03 0.03 91 1016.7
20260902030030 26 323 0.0 0.0 0.00 0.03 0.03 91 1016.9
20260902025532 26 323 0.0 0.0 0.00 0.03 0.03 91 1016.9
20260902025030 26 323 0.0 0.0 0.00 0.03 0.03 91 1016.8
20260902024527 26 323 0.0 0.0 0.00 0.03 0.03 91 1016.8
20260902024027 26 323 0.0 0.0 0.00 0.03 0.03 90 1016.8
20260902023526 26 323 0.0 0.0 0.00 0.03 0.03 90 1016.8
20260902023026 26 323 0.0 0.0 0.00 0.03 0.03 90 1016.9
20260902022524 26 323 0.0 0.0 0.00 0.03 0.03 90 1017.0
20260902022024 26 323 0.0 0.0 0.00 0.03 0.03 90 1017.0
20260902021526 26 323 0.0 0.0 0.00 0.03 0.03 90 1016.9
20260902021022 26 323 0.0 0.0 0.00 0.03 0.03 90 1016.8
20260902020521 26 323 0.0 0.0 0.00 0.03 0.03 90 1016.8
20260902020030 26 323 0.0 0.0 0.00 0.03 0.03 89 1016.9
20260902015520 26 323 0.0 0.0 0.00 0.03 0.03 89 1017.0
20260902015019 26 323 0.0 0.0 0.00 0.03 0.03 89 1016.8
20260902014522 26 323 0.0 0.0 0.00 0.03 0.03 89 1016.7
20260902014018 26 323 0.0 0.0 0.00 0.03 0.03 89 1016.7
20260902013518 26 323 0.0 0.0 0.00 0.03 0.03 89 1016.6
20260902013018 26 323 0.0 0.0 0.00 0.03 0.03 89 1016.6
20260902012517 26 323 0.0 0.0 0.00 0.03 0.03 88 1016.6
20260902012019 26 323 0.0 0.0 0.00 0.03 0.03 88 1016.6
20260902011515 26 323 0.0 0.0 0.00 0.03 0.03 88 1016.6
20260902011015 26 323 0.0 0.0 0.00 0.03 0.03 88 1016.6
20260902010513 26 323 0.0 1.6 0.00 0.03 0.03 88 1016.5
20260902010014 27 297 0.0 1.6 0.00 0.03 0.03 87 1016.5
20260902005616 27 297 0.0 0.0 0.00 0.03 0.03 87 1016.5
20260902005013 27 297 0.0 0.0 0.00 0.03 0.03 87 1016.6
20260902004518 27 297 0.0 0.0 0.00 0.03 0.03 87 1016.4
20260902004011 27 297 0.0 0.0 0.00 0.03 0.03 87 1016.5
20260902003512 27 297 0.0 0.0 0.00 0.03 0.03 86 1016.4
20260902003011 27 224 0.0 1.6 0.00 0.03 0.03 86 1016.3
20260902002510 27 224 0.0 1.6 0.00 0.03 0.03 86 1016.3
20260902002009 27 224 0.0 1.6 0.00 0.03 0.03 86 1016.2
20260902001509 27 281 0.0 1.6 0.00 0.03 0.03 86 1016.4
20260902001008 27 281 0.0 0.0 0.00 0.03 0.03 85 1016.4
20260902000509 27 281 0.0 0.0 0.00 0.03 0.03 85 1016.3
20260902000013 27 281 0.0 0.0 0.00 0.03 0.03 85 1016.3
20260901235507 27 281 0.0 1.6 0.00 0.03 0.03 85 1016.4
20260901235006 27 270 0.0 1.6 0.00 0.03 0.03 85 1016.3
20260901234506 27 243 0.0 1.6 0.00 0.03 0.03 84 1016.3
20260901234005 28 290 0.0 1.6 0.00 0.03 0.03 84 1016.4
20260901233505 28 317 0.0 1.6 0.00 0.03 0.03 84 1016.3
20260901233003 28 317 0.0 1.6 0.00 0.03 0.03 83 1016.2
20260901232503 28 318 0.0 3.2 0.00 0.03 0.03 83 1016.2
20260901232006 28 321 0.0 3.2 0.00 0.03 0.03 83 1016.3
20260901231503 28 217 0.0 3.2 0.00 0.03 0.03 82 1016.3
20260901231001 28 6 0.0 4.8 0.00 0.03 0.03 82 1016.2
20260901230501 28 271 0.0 4.8 0.00 0.03 0.03 81 1016.3
20260901230002 29 81 0.0 4.8 0.00 0.03 0.03 81 1016.3
20260901225559 29 276 0.0 3.2 0.00 0.03 0.03 80 1016.2
20260901225059 29 344 0.0 3.2 0.00 0.03 0.03 79 1016.1
20260901224600 29 233 0.0 1.6 0.00 0.03 0.03 79 1016.1
20260901224058 30 308 0.0 1.6 0.00 0.03 0.03 78 1016.0
20260901223559 30 218 0.0 1.6 0.00 0.03 0.03 78 1016.0
20260901223056 30 310 0.0 3.2 0.00 0.03 0.03 77 1016.1
20260901222555 30 317 0.0 3.2 0.00 0.03 0.03 76 1016.1
20260901222055 30 302 0.0 1.6 0.00 0.03 0.03 78 1016.1
20260901221555 30 295 0.0 3.2 0.00 0.03 0.03 78 1015.9
20260901221053 30 309 0.0 3.2 0.00 0.03 0.03 76 1016.1
20260901220654 31 226 0.0 3.2 0.00 0.03 0.03 75 1016.0
20260901220054 31 306 0.0 3.2 0.00 0.03 0.03 75 1016.0
20260901215552 31 5 0.0 6.4 0.00 0.03 0.03 77 1015.8
20260901215050 31 293 0.0 6.4 0.00 0.03 0.03 78 1016.0
20260901214553 31 27 0.0 6.4 0.00 0.03 0.03 78 1016.1
20260901214050 31 70 0.0 6.4 0.00 0.03 0.03 77 1016.1
20260901213553 32 330 1.6 6.4 0.00 0.03 0.03 75 1016.0
20260901213049 32 252 0.0 3.2 0.00 0.03 0.03 77 1016.0
20260901212547 31 157 0.0 3.2 0.00 0.03 0.03 77 1016.1
20260901212049 31 316 0.0 4.8 0.00 0.03 0.03 77 1016.0
20260901211546 31 92 0.0 4.8 0.00 0.03 0.03 77 1016.0
20260901211045 31 323 0.0 4.8 0.00 0.03 0.03 76 1015.9
20260901210545 31 328 0.0 3.2 0.00 0.03 0.03 75 1016.0
20260901210046 32 323 0.0 4.8 0.00 0.03 0.03 75 1015.9
20260901205544 32 290 0.0 4.8 0.00 0.03 0.03 74 1016.1
20260901205043 32 267 0.0 4.8 0.00 0.03 0.03 73 1016.1
20260901204543 32 311 0.0 4.8 0.00 0.03 0.03 74 1016.0
20260901204043 32 96 0.0 3.2 0.00 0.03 0.03 75 1016.1
20260901203541 32 292 0.0 3.2 0.00 0.03 0.03 74 1016.2
20260901203043 31 329 0.0 4.8 0.00 0.03 0.03 76 1016.2
20260901202543 31 151 0.0 4.8 0.00 0.03 0.03 76 1016.3
20260901202043 31 247 0.0 6.4 0.00 0.03 0.03 77 1016.4
20260901201538 31 248 0.0 9.7 0.00 0.03 0.03 77 1016.5
20260901201039 31 99 1.6 6.4 0.00 0.03 0.03 76 1016.6
20260901200538 31 300 0.0 6.4 0.00 0.03 0.03 79 1016.5
20260901200057 31 153 0.0 6.4 0.00 0.03 0.03 77 1016.6
20260901195536 31 90 0.0 4.8 0.00 0.03 0.03 76 1016.6
20260901195035 31 243 0.0 4.8 0.00 0.03 0.03 78 1016.6
20260901194544 30 309 0.0 4.8 0.00 0.03 0.03 77 1016.7
20260901194036 31 101 0.0 3.2 0.00 0.03 0.03 79 1016.6
20260901193534 31 269 0.0 4.8 0.00 0.03 0.03 78 1016.6
20260901193033 31 258 0.0 3.2 0.00 0.03 0.03 78 1016.5
20260901192532 31 293 0.0 4.8 0.00 0.03 0.03 78 1016.4
20260901192031 31 278 0.0 6.4 0.00 0.03 0.03 76 1016.4
20260901191539 31 243 0.0 4.8 0.00 0.03 0.03 77 1016.4
20260901191029 31 92 0.0 3.2 0.00 0.03 0.03 75 1016.3
20260901190530 31 117 0.0 4.8 0.00 0.03 0.03 76 1016.3
20260901190039 31 52 0.0 4.8 0.00 0.03 0.03 74 1016.3
20260901185531 32 305 0.0 4.8 0.00 0.03 0.03 73 1016.3
20260901185029 32 116 0.0 4.8 0.00 0.03 0.03 73 1016.2
20260901184531 33 293 0.0 6.4 0.00 0.03 0.03 71 1016.3
20260901184027 33 319 1.6 6.4 0.00 0.03 0.03 74 1016.3
20260901183525 32 306 0.0 4.8 0.00 0.03 0.03 73 1016.4
20260901183025 32 349 0.0 4.8 0.00 0.03 0.03 75 1016.6
20260901182524 32 185 0.0 11.3 0.00 0.03 0.03 75 1016.6
20260901182024 32 19 1.6 11.3 0.00 0.03 0.03 73 1016.7
20260901181528 32 302 0.0 4.8 0.00 0.03 0.03 73 1016.7
20260901181023 32 245 0.0 8.0 0.00 0.03 0.03 73 1016.8
20260901180522 32 315 0.0 8.0 0.00 0.03 0.03 75 1016.9
20260901180022 31 111 0.0 3.2 0.00 0.03 0.03 74 1016.9
20260901175525 31 320 0.0 6.4 0.00 0.03 0.03 74 1017.0
20260901175020 32 255 0.0 4.8 0.00 0.03 0.03 73 1016.9
20260901174534 32 320 0.0 4.8 0.00 0.03 0.03 73 1017.1
20260901174026 33 277 0.0 4.8 0.00 0.03 0.03 69 1017.2
20260901173517 33 161 0.0 4.8 0.00 0.03 0.03 72 1017.1
20260901173023 33 240 0.0 4.8 0.00 0.03 0.03 73 1017.1
20260901172513 33 6 0.0 4.8 0.00 0.03 0.03 73 1017.2
20260901172011 33 134 0.0 4.8 0.00 0.03 0.03 73 1017.2
20260901171509 33 277 0.0 6.4 0.00 0.03 0.03 72 1017.4
20260901171007 33 129 1.6 8.0 0.00 0.03 0.03 70 1017.3
20260901170509 33 342 0.0 6.4 0.00 0.03 0.03 75 1017.5
20260901170005 33 195 0.0 6.4 0.00 0.03 0.03 71 1017.5
20260901165505 33 95 0.0 6.4 0.00 0.03 0.03 73 1017.6
20260901165003 33 108 0.0 4.8 0.00 0.03 0.03 75 1017.7
20260901164601 32 162 0.0 4.8 0.00 0.03 0.03 76 1017.7
20260901164058 32 293 0.0 4.8 0.00 0.03 0.03 77 1017.7
20260901163557 31 148 0.0 3.2 0.00 0.03 0.03 79 1017.7
20260901163059 32 255 0.0 4.8 0.00 0.03 0.03 77 1017.8
20260901162553 31 130 0.0 4.8 0.00 0.03 0.03 77 1017.7
20260901162052 31 176 0.0 3.2 0.03 0.03 0.03 80 1017.7
20260901161553 31 319 0.0 3.2 0.03 0.03 0.03 80 1017.7
20260901161051 30 129 0.0 3.2 0.03 0.03 0.03 81 1017.7
20260901160555 30 53 0.0 4.8 0.03 0.03 0.03 81 1017.8
20260901160055 30 319 0.0 4.8 0.03 0.03 0.03 81 1017.8
20260901155550 30 334 0.0 4.8 0.03 0.03 0.03 83 1017.8
20260901155050 29 323 0.0 3.2 0.03 0.03 0.03 84 1017.9
20260901154550 29 257 0.0 1.6 0.03 0.03 0.03 84 1017.8
20260901154049 29 198 0.0 0.0 0.03 0.03 0.03 85 1017.8
20260901153549 29 170 0.0 1.6 0.03 0.03 0.03 85 1018.0
20260901153047 30 151 0.0 1.6 0.03 0.03 0.03 83 1018.1
20260901152545 30 300 0.0 3.2 0.03 0.03 0.03 82 1018.0
20260901152044 31 63 0.0 4.8 0.00 0.00 0.00 81 1018.1
20260901151544 31 172 0.0 4.8 0.00 0.00 0.00 80 1017.9
20260901151043 31 260 0.0 1.6 0.00 0.00 0.00 81 1017.9